• în România
  • Lista ţărilor
  • Pe 7 zile
  • Temperatura apei
  • Hartă satelitară
  • Meteo pe hartă
  • Widget-uri
  • user-avatar
    Intrare

    Meteo pe oră la Novki

    Astăzi, 21 Aprilie, Sâmbătă

    Timp Temperatura Precipitaţii Vânt Presiune Umiditate
    00:00 +10°C° 0 mm 3 m/s 743 mmHg 79%
    01:00 +10°C° 0 mm 3 m/s 743 mmHg 84%
    02:00 +10°C° 0 mm 4 m/s 742 mmHg 88%
    03:00 +8°C° 0 mm 4 m/s 741 mmHg 89%
    04:00 +8°C° 0 mm 4 m/s 740 mmHg 89%
    05:00 +8°C° 0 mm 4 m/s 739 mmHg 90%
    06:00 +10°C° 0 mm 4 m/s 738 mmHg 84%
    07:00 +12°C° 0 mm 5 m/s 737 mmHg 78%
    08:00 +13°C° 0 mm 5 m/s 736 mmHg 72%
    09:00 +14°C° 0 mm 6 m/s 735 mmHg 68%
    10:00 +16°C° 0 mm 6 m/s 734 mmHg 64%
    11:00 +17°C° 0 mm 7 m/s 733 mmHg 60%
    12:00 +17°C° 0,4 mm 7 m/s 733 mmHg 58%
    13:00 +17°C° 0,4 mm 8 m/s 733 mmHg 57%
    14:00 +17°C° 0,4 mm 9 m/s 732 mmHg 55%
    15:00 +16°C° 0,1 mm 8 m/s 733 mmHg 54%
    16:00 +13°C° 0,1 mm 8 m/s 733 mmHg 54%
    17:00 +12°C° 0,1 mm 8 m/s 734 mmHg 53%
    18:00 +10°C° 0 mm 7 m/s 734 mmHg 57%
    19:00 +9°C° 0 mm 6 m/s 735 mmHg 62%
    20:00 +8°C° 0 mm 4 m/s 736 mmHg 66%
    21:00 +7°C° 0 mm 5 m/s 736 mmHg 67%
    22:00 +7°C° 0 mm 5 m/s 736 mmHg 68%
    23:00 +6°C° 0 mm 5 m/s 736 mmHg 69%

    Mâine, 22 Aprilie, Duminică

    Timp Temperatura Precipitaţii Vânt Presiune Umiditate
    00:00 +6°C° 0 mm 5 m/s 737 mmHg 70%
    01:00 +6°C° 0 mm 5 m/s 737 mmHg 71%
    02:00 +5°C° 0 mm 5 m/s 737 mmHg 72%
    03:00 +5°C° 0 mm 5 m/s 737 mmHg 73%
    04:00 +5°C° 0 mm 5 m/s 737 mmHg 74%
    05:00 +5°C° 0 mm 5 m/s 737 mmHg 75%
    06:00 +5°C° 0,1 mm 5 m/s 738 mmHg 74%
    07:00 +6°C° 0,1 mm 5 m/s 738 mmHg 73%
    08:00 +6°C° 0,1 mm 5 m/s 738 mmHg 72%
    09:00 +6°C° 0,2 mm 5 m/s 738 mmHg 71%
    10:00 +6°C° 0,2 mm 5 m/s 739 mmHg 71%
    11:00 +7°C° 0,2 mm 5 m/s 739 mmHg 71%
    12:00 +7°C° 0,2 mm 5 m/s 739 mmHg 68%
    13:00 +8°C° 0,2 mm 5 m/s 739 mmHg 66%
    14:00 +8°C° 0,2 mm 5 m/s 740 mmHg 64%
    15:00 +8°C° 0,1 mm 5 m/s 740 mmHg 63%
    16:00 +8°C° 0,1 mm 5 m/s 740 mmHg 63%
    17:00 +7°C° 0,1 mm 4 m/s 741 mmHg 63%
    18:00 +6°C° 0 mm 4 m/s 741 mmHg 68%
    19:00 +5°C° 0 mm 3 m/s 742 mmHg 74%
    20:00 +4°C° 0 mm 2 m/s 742 mmHg 80%
    21:00 +4°C° 0 mm 2 m/s 742 mmHg 81%
    22:00 +3°C° 0 mm 2 m/s 743 mmHg 82%
    23:00 +4°C° 0 mm 1 m/s 743 mmHg 83%

    Poimâine, 23 Aprilie, Luni

    Timp Temperatura Precipitaţii Vânt Presiune Umiditate
    00:00 +3°C° 0 mm 1 m/s 744 mmHg 84%
    01:00 +2°C° 0 mm 1 m/s 744 mmHg 85%
    02:00 +1°C° 0 mm 1 m/s 744 mmHg 87%
    03:00 +1°C° 0 mm 1 m/s 745 mmHg 86%
    04:00 0°C° 0 mm 1 m/s 745 mmHg 84%
    05:00 0°C° 0 mm 1 m/s 745 mmHg 83%
    06:00 -1°C° 0 mm 2 m/s 746 mmHg 72%
    07:00 +2°C° 0 mm 2 m/s 746 mmHg 62%
    08:00 +3°C° 0 mm 2 m/s 746 mmHg 51%
    09:00 +5°C° 0 mm 2 m/s 746 mmHg 45%
    10:00 +6°C° 0 mm 2 m/s 746 mmHg 40%
    11:00 +9°C° 0 mm 1 m/s 746 mmHg 34%
    12:00 +10°C° 0 mm 1 m/s 746 mmHg 33%
    13:00 +11°C° 0 mm 1 m/s 746 mmHg 31%
    14:00 +12°C° 0 mm 1 m/s 746 mmHg 30%
    15:00 +11°C° 0 mm 1 m/s 746 mmHg 30%
    16:00 +11°C° 0 mm 1 m/s 746 mmHg 31%
    17:00 +10°C° 0 mm 1 m/s 745 mmHg 31%
    18:00 +9°C° 0 mm 1 m/s 745 mmHg 37%
    19:00 +7°C° 0 mm 1 m/s 745 mmHg 42%
    20:00 +5°C° 0 mm 1 m/s 745 mmHg 47%
    21:00 +5°C° 0 mm 1 m/s 745 mmHg 49%
    22:00 +4°C° 0 mm 1 m/s 745 mmHg 51%
    23:00 +3°C° 0 mm 2 m/s 745 mmHg 53%

    24 Aprilie, Marţi

    Timp Temperatura Precipitaţii Vânt Presiune Umiditate
    00:00 +3°C° 0 mm 2 m/s 744 mmHg 55%
    01:00 +3°C° 0 mm 2 m/s 744 mmHg 56%
    02:00 +3°C° 0 mm 2 m/s 744 mmHg 57%
    03:00 +3°C° 0,1 mm 2 m/s 743 mmHg 59%
    04:00 +2°C° 0,1 mm 3 m/s 743 mmHg 61%
    05:00 +3°C° 0,1 mm 3 m/s 743 mmHg 63%
    06:00 +3°C° 0,2 mm 3 m/s 742 mmHg 66%
    07:00 +4°C° 0,2 mm 3 m/s 742 mmHg 68%
    08:00 +4°C° 0,2 mm 3 m/s 742 mmHg 71%
    09:00 +5°C° 0,2 mm 4 m/s 741 mmHg 73%
    10:00 +5°C° 0,2 mm 4 m/s 741 mmHg 75%
    11:00 +6°C° 0,2 mm 4 m/s 741 mmHg 76%
    12:00 +6°C° 0,2 mm 4 m/s 741 mmHg 79%
    13:00 +6°C° 0,2 mm 4 m/s 741 mmHg 82%
    14:00 +6°C° 0,2 mm 4 m/s 740 mmHg 84%
    15:00 +7°C° 0,2 mm 3 m/s 740 mmHg 85%
    16:00 +7°C° 0,2 mm 3 m/s 740 mmHg 86%
    17:00 +8°C° 0,2 mm 3 m/s 739 mmHg 87%
    18:00 +7°C° 0,1 mm 3 m/s 739 mmHg 89%
    19:00 +7°C° 0,1 mm 2 m/s 739 mmHg 91%
    20:00 +7°C° 0,1 mm 2 m/s 739 mmHg 94%
    21:00 +7°C° 0,1 mm 2 m/s 739 mmHg 93%
    22:00 +6°C° 0,1 mm 2 m/s 739 mmHg 93%
    23:00 +6°C° 0,1 mm 2 m/s 739 mmHg 93%

    25 Aprilie, Miercuri

    Timp Temperatura Precipitaţii Vânt Presiune Umiditate
    00:00 +6°C° 0 mm 2 m/s 739 mmHg 93%
    01:00 +5°C° 0 mm 2 m/s 739 mmHg 94%
    02:00 +4°C° 0 mm 2 m/s 739 mmHg 95%
    03:00 +4°C° 0 mm 2 m/s 739 mmHg 95%
    04:00 +4°C° 0 mm 2 m/s 739 mmHg 95%
    05:00 +3°C° 0 mm 3 m/s 738 mmHg 96%
    06:00 +4°C° 0,1 mm 3 m/s 738 mmHg 93%
    07:00 +5°C° 0,1 mm 4 m/s 738 mmHg 91%
    08:00 +6°C° 0,1 mm 4 m/s 737 mmHg 88%
    09:00 +7°C° 0,2 mm 5 m/s 737 mmHg 83%
    10:00 +8°C° 0,2 mm 5 m/s 737 mmHg 78%
    11:00 +9°C° 0,2 mm 5 m/s 737 mmHg 74%
    12:00 +10°C° 0,2 mm 6 m/s 737 mmHg 68%
    13:00 +10°C° 0,2 mm 6 m/s 737 mmHg 63%
    14:00 +11°C° 0,2 mm 6 m/s 737 mmHg 58%
    15:00 +10°C° 0,3 mm 5 m/s 737 mmHg 62%
    16:00 +10°C° 0,3 mm 5 m/s 736 mmHg 67%
    17:00 +10°C° 0,3 mm 4 m/s 736 mmHg 72%
    18:00 +9°C° 0,3 mm 3 m/s 736 mmHg 77%
    19:00 +8°C° 0,3 mm 3 m/s 736 mmHg 83%
    20:00 +7°C° 0,3 mm 2 m/s 736 mmHg 89%
    21:00 +6°C° 0 mm 2 m/s 736 mmHg 89%
    22:00 +5°C° 0 mm 3 m/s 737 mmHg 90%
    23:00 +4°C° 0 mm 3 m/s 737 mmHg 90%

    26 Aprilie, Joi

    Timp Temperatura Precipitaţii Vânt Presiune Umiditate
    00:00 +4°C° 0 mm 3 m/s 737 mmHg 91%
    01:00 +3°C° 0 mm 3 m/s 737 mmHg 92%
    02:00 +4°C° 0 mm 2 m/s 737 mmHg 93%
    03:00 +4°C° 0 mm 2 m/s 737 mmHg 94%
    04:00 +3°C° 0 mm 2 m/s 737 mmHg 95%
    05:00 +3°C° 0 mm 2 m/s 737 mmHg 96%
    06:00 +3°C° 0 mm 3 m/s 737 mmHg 90%
    07:00 +5°C° 0 mm 3 m/s 737 mmHg 85%
    08:00 +7°C° 0 mm 3 m/s 737 mmHg 79%
    09:00 +7°C° 0,1 mm 4 m/s 738 mmHg 72%
    10:00 +10°C° 0,1 mm 4 m/s 738 mmHg 64%
    11:00 +11°C° 0,1 mm 4 m/s 738 mmHg 57%
    12:00 +12°C° 0,3 mm 4 m/s 738 mmHg 56%
    13:00 +12°C° 0,3 mm 4 m/s 738 mmHg 54%
    14:00 +12°C° 0,3 mm 5 m/s 738 mmHg 53%
    15:00 +12°C° 0,3 mm 4 m/s 739 mmHg 56%
    16:00 +12°C° 0,3 mm 4 m/s 739 mmHg 59%
    17:00 +11°C° 0,3 mm 4 m/s 739 mmHg 62%
    18:00 +10°C° 0,1 mm 4 m/s 740 mmHg 68%
    19:00 +9°C° 0,1 mm 3 m/s 740 mmHg 75%
    20:00 +8°C° 0,1 mm 3 m/s 741 mmHg 81%
    21:00 +7°C° 0 mm 3 m/s 741 mmHg 83%
    22:00 +7°C° 0 mm 3 m/s 741 mmHg 85%
    23:00 +5°C° 0 mm 3 m/s 742 mmHg 86%
    Arată mai mult